Skagway, AK

10:07 PM AKDT on June 26, 2017 (GMT -0800)
Skagway

Weather History for PAGY - April, 2014

Change the Weather History Date:

Monday, April 7, 2014

  Actual Average Record
Temperature  
Mean Temperature 40 °F -  
Max Temperature 46 °F 43 °F 60 °F (1966)
Min Temperature 35 °F 28 °F 24 °F (1983)
Degree Days  
Heating Degree Days 24    
Moisture  
Dew Point 34 °F    
Average Humidity 81    
Maximum Humidity 97    
Minimum Humidity 62    
Precipitation  
Precipitation 0.53 in - - ()
Sea Level Pressure  
Sea Level Pressure 29.33 in    
Wind  
Wind Speed 6 mph (ENE)    
Max Wind Speed 25 mph    
Max Gust Speed 33 mph    
Visibility 8 miles    
Events Rain    
Averages and records for this station are not official NWS values.
T = Trace of Precipitation, MM = Missing Value Source: NWS Daily Summary

Daily Weather History Graph

Daily Weather History Graph

Search for Another Location

Airport or City:

Trip Planner

Search our weather history database for the weather conditions in past years. The results will help you decide how hot, cold, wet, or windy it might be!

Date:

Astronomy

Apr. 07, 2014 Rise Set
Actual Time 6:08 AM AKDT 7:59 PM AKDT
Civil Twilight 5:25 AM AKDT 8:42 PM AKDT
Nautical Twilight 4:30 AM AKDT 9:38 PM AKDT
Astronomical Twilight 3:24 AM AKDT 10:46 PM AKDT
Moon 11:34 AM AKDT (4/7) 3:20 AM AKDT (4/7)
Length of Visible Light 15h 16m
Length of Day
13h 50m
First Quarter, 55% of the Moon is Illuminated
Apr 7
First Quarter
Apr 14
Full
Apr 21
Last Quarter
Apr 28
New
May 6
First Quarter

Hourly Weather History & Observations

Time (AKDT) Temp. Windchill Dew Point Humidity Pressure Visibility Wind Dir Wind Speed Gust Speed Precip Events Conditions
12:53 AM 37.0 °F 31.6 °F 30.9 °F 79% 29.61 in 10.0 mi NE 6.9 mph - N/A   Mostly Cloudy
1:53 AM 37.0 °F 34.5 °F 30.9 °F 79% 29.55 in 10.0 mi NNE 3.5 mph - N/A   Mostly Cloudy
2:53 AM 42.1 °F 40.2 °F 30.0 °F 62% 29.49 in 10.0 mi West 3.5 mph - N/A   Overcast
3:53 AM 39.9 °F - 32.0 °F 73% 29.48 in 10.0 mi Calm Calm - N/A   Overcast
4:42 AM 39.9 °F 31.4 °F 32.0 °F 73% 29.46 in 8.0 mi NE 16.1 mph - 0.00 in Rain Light Rain
4:53 AM 39.9 °F 32.9 °F 32.0 °F 73% 29.47 in 9.0 mi NNE 11.5 mph - 0.01 in Rain Light Rain
5:53 AM 37.9 °F 32.7 °F 33.1 °F 83% 29.42 in 10.0 mi Variable 6.9 mph - 0.03 in Rain Light Rain
6:37 AM 37.9 °F 34.4 °F 33.1 °F 83% 29.40 in 10.0 mi Variable 4.6 mph - 0.02 in   Overcast
6:53 AM 37.9 °F 33.5 °F 33.1 °F 83% 29.40 in 10.0 mi Variable 5.8 mph - 0.02 in Rain Light Rain
7:14 AM 39.0 °F 34.8 °F 33.1 °F 79% 29.38 in 7.0 mi North 5.8 mph - 0.01 in Rain Light Rain
7:53 AM 39.0 °F 36.8 °F 33.1 °F 79% 29.35 in 10.0 mi Variable 3.5 mph - 0.03 in Rain Light Rain
8:03 AM 39.0 °F - 33.1 °F 79% 29.36 in 10.0 mi Calm Calm - 0.00 in   Overcast
8:53 AM 39.0 °F - 34.0 °F 82% 29.33 in 10.0 mi Calm Calm - 0.00 in Rain Light Rain
9:53 AM 39.0 °F 36.8 °F 34.0 °F 82% 29.31 in 8.0 mi ENE 3.5 mph - 0.01 in Rain Light Rain
10:53 AM 37.0 °F - 33.1 °F 86% 29.29 in 8.0 mi Calm Calm - 0.08 in Rain Light Rain
11:53 AM 36.0 °F - 33.1 °F 89% 29.28 in 5.0 mi Calm Calm - 0.09 in Rain Light Rain
12:53 PM 36.0 °F - 34.0 °F 93% 29.27 in 4.0 mi Calm Calm - 0.06 in Rain Rain
1:51 PM 35.6 °F - 33.8 °F 93% 29.24 in 2.0 mi Calm Calm - 0.05 in Rain Light Rain
1:53 PM 36.0 °F - 34.0 °F 93% 29.24 in 2.0 mi Calm Calm - 0.05 in Rain Rain
2:04 PM 36.0 °F 33.3 °F 35.1 °F 97% 29.23 in 3.0 mi SW 3.5 mph - 0.02 in Rain Light Rain
2:53 PM 36.0 °F - 33.1 °F 89% 29.25 in 6.0 mi Calm Calm - 0.08 in Rain Light Rain
3:07 PM 36.0 °F 33.3 °F 34.0 °F 93% 29.24 in 4.0 mi NNE 3.5 mph - 0.02 in Rain Rain
3:21 PM 35.1 °F 30.1 °F 32.0 °F 89% 29.25 in 5.0 mi ENE 5.8 mph - 0.04 in Rain Light Rain
3:36 PM 36.0 °F 30.3 °F 32.0 °F 86% 29.24 in 6.0 mi NE 6.9 mph - 0.06 in Rain Light Rain
3:53 PM 36.0 °F 33.3 °F 33.1 °F 89% 29.25 in 10.0 mi NNE 3.5 mph - 0.06 in Rain Light Rain
4:05 PM 37.0 °F 32.4 °F 34.0 °F 89% 29.25 in 10.0 mi NE 5.8 mph - 0.01 in   Overcast
4:37 PM 39.0 °F 32.8 °F 35.1 °F 86% 29.24 in 10.0 mi ENE 9.2 mph - 0.01 in   Overcast
4:48 PM 39.2 °F 32.5 °F 35.6 °F 87% 29.24 in 10.0 mi NE 10.4 mph 18.4 mph 0.01 in   Overcast
4:53 PM 41.0 °F 33.9 °F 36.0 °F 82% 29.23 in 10.0 mi ENE 12.7 mph 26.5 mph 0.01 in   Overcast
5:14 PM 45.0 °F 36.4 °F 39.0 °F 80% 29.21 in 10.0 mi SW 23.0 mph 29.9 mph N/A   Overcast
5:53 PM 44.1 °F 40.1 °F 37.0 °F 76% 29.25 in 10.0 mi Variable 6.9 mph - N/A   Overcast
6:53 PM 46.0 °F 37.4 °F 35.1 °F 66% 29.27 in 10.0 mi SSW 25.3 mph 33.4 mph N/A   Scattered Clouds
7:53 PM 45.0 °F 36.6 °F 34.0 °F 65% 29.30 in 10.0 mi SSW 21.9 mph 31.1 mph N/A   Overcast
8:53 PM 45.0 °F 38.2 °F 33.1 °F 63% 29.32 in 10.0 mi SSW 15.0 mph 26.5 mph N/A   Overcast
9:53 PM 44.1 °F 37.7 °F 34.0 °F 68% 29.34 in 10.0 mi South 12.7 mph - N/A   Overcast
10:53 PM 44.1 °F 37.1 °F 34.0 °F 68% 29.33 in 10.0 mi SSW 15.0 mph 24.2 mph N/A   Scattered Clouds
11:53 PM 44.1 °F 36.5 °F 35.1 °F 71% 29.35 in 10.0 mi SSW 17.3 mph 26.5 mph N/A   Overcast